Location: Cahas Mountain Overlook
(37.0833°N, 80.1000°W)
Time: 03:45:11
(UTC-05:00)

S-56A Canister/Altair - Visible Passes

Search period start: 15 February 2026 00:00
Search period end: 25 February 2026 00:00
Orbit: 632 x 2485 km, 38.9° (Epoch: 15 February)

Date Brightness Start Highest point End Pass type
(mag) Time Alt. Az. Time Alt. Az. Time Alt. Az.
15 Feb 11.3 01:31:15 10° ENE 01:31:15 10° ENE 01:31:16 10° ENE visible
15 Feb 9.4 03:28:30 63° E 03:28:30 63° E 03:38:56 10° E visible
15 Feb 9.6 05:25:45 30° W 05:32:00 69° SSW 05:46:08 10° SE visible
16 Feb 10.0 02:55:32 40° E 02:55:32 40° E 03:02:48 10° E visible
16 Feb 9.3 04:52:47 47° W 04:56:29 73° SSW 05:10:13 10° ESE visible
17 Feb 10.6 02:22:36 24° E 02:22:36 24° E 02:26:43 10° E visible
17 Feb 9.0 04:19:51 71° WSW 04:21:02 78° SSW 04:34:14 10° ESE visible
17 Feb 10.2 06:17:07 12° W 06:26:24 41° SW 06:39:15 10° SSE visible
18 Feb 11.2 01:49:44 13° E 01:49:44 13° E 01:50:42 10° E visible
18 Feb 9.1 03:46:59 71° SE 03:46:59 71° SE 03:58:12 10° ESE visible
18 Feb 9.9 05:44:15 22° W 05:50:55 44° SSW 06:03:45 10° SSE visible
19 Feb 9.8 03:14:10 46° ESE 03:14:10 46° ESE 03:22:10 10° ESE visible
19 Feb 9.5 05:11:26 35° WSW 05:15:28 48° SSW 05:28:08 10° SE visible
20 Feb 10.5 02:41:25 27° ESE 02:41:25 27° ESE 02:46:09 10° ESE visible
20 Feb 9.2 04:38:40 50° SW 04:40:05 52° SSW 04:52:26 10° SE visible
20 Feb 10.6 06:37:28 10° W 06:45:06 21° SW 06:54:16 10° S visible
21 Feb 11.0 02:08:41 15° E 02:08:41 15° E 02:10:10 10° E visible
21 Feb 9.3 04:05:58 54° S 04:05:58 54° S 04:16:40 10° SE visible
21 Feb 10.4 06:03:15 13° W 06:09:43 24° SW 06:19:22 10° S visible
22 Feb 9.8 03:33:19 41° SE 03:33:19 41° SE 03:40:53 10° SE visible
22 Feb 10.1 05:30:35 22° WSW 05:34:22 26° SW 05:44:16 10° SSE visible
23 Feb 10.5 03:00:42 25° SE 03:00:42 25° SE 03:05:03 10° SE visible
23 Feb 9.9 04:57:59 29° SW 04:59:04 29° SW 05:09:01 10° SSE visible
23 Feb 9.4 20:05:16 10° S 20:05:48 12° S 20:05:48 12° S visible
24 Feb 11.1 02:28:09 13° ESE 02:28:09 13° ESE 02:29:14 10° ESE visible
24 Feb 10.0 04:25:26 30° SSW 04:25:26 30° SSW 04:33:41 10° SSE visible
24 Feb 9.1 19:31:17 10° S 19:33:12 14° SSE 19:33:12 14° SSE visible
